Location: Dackenheim
(49.5215°N, 8.1854°E)
Time: 22:50:08
(UTC+00:00)

BlueWalker 3 - Pass Details

Date: 26 January 2026
Orbit: 450 x 461 km, 53.2° (Epoch: 11 February)

Event Time Altitude Azimuth Distance (km) Brightness Sun altitude
Rises 19:14:42 0° 277° (W) 2,457 6.7 -29.3°
Reaches altitude 10° 19:16:54 10° 284° (WNW) 1,584 5.4 -29.7°
Enters shadow 19:18:00 18° 291° (WNW) 1,172 4.5 -29.8°
